Regional Weather Roundup
Issued by NWS

Home | Current Version | Previous Version | Text Only | Print | Product List | Glossary Off
Versions: 1 2 3 4 5 6 7 8 9 10 11 12 13 14 15 16 17 18 19 20 21 22 23 24 25 26 27 28 29 30 31 32 33 34 35 36 37 38 39 40 41 42 43 44 45 46 47 48 49

000
ASUS45 KBOU 230007
RWRCO

WEATHER ROUNDUP FOR COLORADO
NATIONAL WEATHER SERVICE DENVER/BOULDER CO
500 PM MST SAT NOV 22 2014

NOTE: "FAIR" INDICATES FEW OR NO CLOUDS BELOW 12000 FEET WITH NO
SIGNIFICANT WEATHER AND/OR OBSTRUCTIONS TO VISIBILITY.

COZ001>005-013-030-031-230100-
...NORTHWEST COLORADO...

CITY           SKY/WX    TMP DP  RH WIND       PRES   REMARKS
CRAIG          CLOUDY    40  27  59 SW16G24   29.77F
HAYDEN         CLOUDY    34  28  80 E7        29.78F WCI  28
MEEKER         CLOUDY    38  29  70 CALM      29.80F
MOUNT WERNER   NOT AVBL
STEAMBOAT SPGS CLOUDY    32  31  98 E3        29.79F
WALDEN         CLOUDY    32  27  80 SE10G18   29.77F WCI  24
$$

COZ006>008-011-230100-
...WEST CENTRAL VALLEYS...

CITY           SKY/WX    TMP DP  RH WIND       PRES   REMARKS
GRAND JUNCTION CLOUDY    40  23  50 E6        29.87R
MONTROSE       LGT RAIN  45  23  42 N8        29.90R
EAGLE          LGT SNOW  37  30  75 CALM      29.87F FOG
RIFLE          CLOUDY    39  32  76 E12       29.86S
DELTA          LGT RAIN  47  32  57 NW12      29.89R
NUCLA          CLOUDY    46  21  36 S13       29.92F
$$

COZ017>023-064>068-230100-
...SOUTHWEST COLORADO...

CITY           SKY/WX    TMP DP  RH WIND       PRES   REMARKS
DURANGO        CLOUDY    43  18  36 SW9       29.94F
CORTEZ         MOCLDY    44  22  41 CALM      29.93F
PAGOSA SPRINGS MOCLDY    42  17  37 SW6       29.96S
TELLURIDE      CLOUDY    38  16  40 CALM      29.95S
WOLF CREEK PAS PTCLDY    19  16  86 SW30G41   29.97F WCI   0
$$

COZ009-010-012-014-032>034-037-058>063-230100-
...CENTRAL COLORADO...

CITY           SKY/WX    TMP DP  RH WIND       PRES   REMARKS
ASPEN          LGT RAIN  36  25  64 N9        29.83F
BUENA VISTA    CLOUDY    38  23  54 NW10G29   29.84R
COPPER MTN     LGT SNOW  27  19  74 SW16G31   29.89F WCI  14
BERTHOUD PASS  HVY SNOW  18  12  79 NW22G28   29.85F VSB<1/4 WCI   0
COTTONWOOD PAS LGT SNOW  34  21  60 W24G44    29.83R WCI  21
GUNNISON       CLOUDY    30  19  64 E5        29.93F WCI  25
KREMMLING      CLOUDY    36  28  75 E7        29.82F
LEADVILLE      CLOUDY    27  21  78 N8        29.85F WCI  19
MONARCH PASS   CLOUDY    23  12  63 W30G38    30.04R WCI   5
SALIDA         CLOUDY    46  14  28 SW13G26   29.91R
SUNLIGHT       LGT SNOW  28  27  93 S3        29.87F
WILKERSON PASS CLOUDY    32  10  40 W15G30    29.83R WCI  22
$$

COZ069>075-230100-
...SAN LUIS VALLEY/SANGRE DE CRISTO MOUNTAINS...

CITY           SKY/WX    TMP DP  RH WIND       PRES   REMARKS
ALAMOSA        PTCLDY    39  12  33 S9        29.84S
LA VETA PASS   PTCLDY    30  12  47 S18G38    29.79R WCI  18
SAGUACHE       PTCLDY    37  18  44 NE5       29.86S
$$

COZ035-036-038>040-230100-
...NORTHERN COLORADO FRONT RANGE...

CITY           SKY/WX    TMP DP  RH WIND       PRES   REMARKS
DENVER INTL AP CLOUDY    55  21  26 W17       29.60R
DMNS CITY PARK   N/A     55  18  23 NW13G21   29.59R
AURORA         MOCLDY    47  22  37 N10       29.63R
FRONT RANGE AP CLOUDY    46  30  53 SW3       29.61R
ERIE MUNI ARPT CLOUDY    54  22  28 W15G22    29.60F
BOULDER MUN AP CLOUDY    50  25  37 N13       29.58S
CENTENNIAL     CLOUDY    52  19  27 NE7       29.61R
BROOMFIELD     MOCLDY    54  21  28 W35G45    29.63R
FORT COLLINS   CLOUDY    48  25  40 SW14G26   29.61R
LONGMONT       CLOUDY    54  24  32 NW13      29.63R
$$

COZ041-046-047-076>085-087-088-230100-
...PIKES PEAK/PALMER DIVIDE AND SOUTHERN FOOTHILLS...

CITY           SKY/WX    TMP DP  RH WIND       PRES   REMARKS
COLO. SPRINGS  CLOUDY    52   8  17 N7        29.62S
A. F. ACADEMY  CLOUDY    54  10  17 NW9       29.64R
ELLICOTT       NOT AVBL
FALCON         NOT AVBL
FORT CARSON    CLOUDY    54  13  19 SW14      29.58F
LIMON          CLOUDY    40  14  34 E3        29.57F
MONUMENT HILL  CLOUDY    43  12  28 NW7       29.64R
TRINIDAD       CLEAR     50  26  39 W6        29.65S
$$

COZ042>045-048>051-090-091-230100-
...NORTHEAST COLORADO...

CITY           SKY/WX    TMP DP  RH WIND       PRES   REMARKS
GREELEY ARPT   CLOUDY    39  25  56 W10       29.60R
AKRON          CLOUDY    50  13  22 CALM      29.55S
BURLINGTON     PTCLDY    50  17  27 S12       29.56F
WRAY           MOCLDY    52   7  16 N8        29.52F
STERLING       CLOUDY    50  25  37 N12       29.54R
HOLYOKE        MOCLDY    50  12  22 N6        29.53S
FORT MORGAN    CLOUDY    49  15  25 N8        29.55F
$$

COZ086-089-092>099-230100-
...SOUTHEAST COLORADO...

CITY           SKY/WX    TMP DP  RH WIND       PRES   REMARKS
PUEBLO         CLOUDY    60  14  16 W14G21    29.56F
LA JUNTA       PTCLDY    49  30  48 SW9       29.56F
LAMAR          CLEAR     44  24  45 S8        29.54F
SPRINGFIELD      N/A     46  20  35 SW8       29.59S
$$



USA.gov is the U.S. government's official web portal to all federal, state and local government web resources and services.